Time,TemperatureF,DewpointF,PressureIn,WindDirection,WindDirectionDegrees,WindSpeedMPH,WindSpeedGustMPH,Humidity,HourlyPrecipIn,Conditions,Clouds,dailyrainin,SoftwareType,DateUTC
2013-09-08 00:00:00,52.3,46.4,30.17,North,1,0.0,0.0,80,0.00,CLR,SKC,0.00,WeatherDisplay:10.37,2013-09-07 22:00:00,
2013-09-08 00:10:00,52.2,45.8,30.17,North,1,0.0,0.0,79,0.00,CLR,SKC,0.00,WeatherDisplay:10.37,2013-09-07 22:10:00,
2013-09-08 00:20:00,52.0,45.7,30.17,North,1,0.0,0.0,79,0.00,CLR,SKC,0.00,WeatherDisplay:10.37,2013-09-07 22:20:00,
2013-09-08 00:30:00,52.0,45.7,30.17,North,1,0.0,0.0,79,0.00,CLR,SKC,0.00,WeatherDisplay:10.37,2013-09-07 22:30:00,
2013-09-08 00:40:00,52.2,45.5,30.18,North,1,0.0,0.0,78,0.00,CLR,SKC,0.00,WeatherDisplay:10.37,2013-09-07 22:40:00,
2013-09-08 00:50:00,52.9,45.9,30.18,North,1,0.0,0.0,77,0.00,CLR,SKC,0.00,WeatherDisplay:10.37,2013-09-07 22:50:00,
2013-09-08 01:00:00,54.3,46.9,30.18,North,1,0.0,0.0,76,0.00,CLR,SKC,0.00,WeatherDisplay:10.37,2013-09-07 23:00:00,
2013-09-08 01:10:00,54.3,46.6,30.19,North,1,0.0,0.0,75,0.00,CLR,SKC,0.00,WeatherDisplay:10.37,2013-09-07 23:10:00,
2013-09-08 01:20:00,54.0,46.2,30.18,North,1,0.0,0.0,75,0.00,CLR,SKC,0.00,WeatherDisplay:10.37,2013-09-07 23:20:00,
2013-09-08 01:30:00,53.4,46.0,30.19,North,1,0.0,0.0,76,0.00,CLR,SKC,0.00,WeatherDisplay:10.37,2013-09-07 23:30:00,
2013-09-08 01:40:00,52.7,45.7,30.19,North,1,0.0,0.0,77,0.00,CLR,SKC,0.00,WeatherDisplay:10.37,2013-09-07 23:40:00,
2013-09-08 01:50:00,52.3,45.7,30.18,North,1,0.0,0.0,78,0.00,CLR,SKC,0.00,WeatherDisplay:10.37,2013-09-07 23:50:00,
2013-09-08 02:00:00,52.0,45.3,30.19,North,1,0.0,0.0,78,0.00,CLR,SKC,0.00,WeatherDisplay:10.37,2013-09-08 00:00:00,
2013-09-08 02:10:00,51.4,45.1,30.19,North,1,0.0,0.0,79,0.00,CLR,SKC,0.00,WeatherDisplay:10.37,2013-09-08 00:10:00,
2013-09-08 02:20:00,50.9,44.9,30.18,North,1,0.0,0.0,80,0.00,CLR,SKC,0.00,WeatherDisplay:10.37,2013-09-08 00:20:00,
2013-09-08 02:30:00,50.5,44.6,30.19,North,1,0.0,0.0,80,0.00,CLR,SKC,0.00,WeatherDisplay:10.37,2013-09-08 00:30:00,
2013-09-08 02:40:00,50.2,44.6,30.18,North,1,0.0,0.0,81,0.00,CLR,SKC,0.00,WeatherDisplay:10.37,2013-09-08 00:40:00,
2013-09-08 02:50:00,49.8,44.5,30.19,North,1,0.0,0.0,82,0.00,CLR,SKC,0.00,WeatherDisplay:10.37,2013-09-08 00:50:00,
2013-09-08 03:00:00,49.8,44.5,30.19,North,1,0.0,0.0,82,0.00,CLR,SKC,0.00,WeatherDisplay:10.37,2013-09-08 01:00:00,
2013-09-08 03:10:00,49.8,44.5,30.18,North,1,0.0,0.0,82,0.00,CLR,SKC,0.00,WeatherDisplay:10.37,2013-09-08 01:10:00,
2013-09-08 03:20:00,50.2,44.6,30.19,North,1,0.0,0.0,81,0.00,CLR,SKC,0.00,WeatherDisplay:10.37,2013-09-08 01:20:00,
2013-09-08 03:30:00,50.7,44.1,30.19,North,1,0.0,0.0,78,0.00,CLR,SKC,0.00,WeatherDisplay:10.37,2013-09-08 01:30:00,
2013-09-08 03:40:00,51.1,44.1,30.19,North,1,0.0,0.0,77,0.00,CLR,SKC,0.00,WeatherDisplay:10.37,2013-09-08 01:40:00,
2013-09-08 03:50:00,51.4,44.5,30.19,North,1,0.0,0.0,77,0.00,CLR,SKC,0.00,WeatherDisplay:10.37,2013-09-08 01:50:00,
2013-09-08 04:00:00,51.4,44.5,30.19,North,1,0.0,0.0,77,0.00,CLR,SKC,0.00,WeatherDisplay:10.37,2013-09-08 02:00:00,
2013-09-08 04:10:00,51.1,44.1,30.19,North,1,0.0,0.0,77,0.00,CLR,SKC,0.00,WeatherDisplay:10.37,2013-09-08 02:10:00,
2013-09-08 04:20:00,50.7,43.8,30.18,North,1,0.0,0.0,77,0.00,CLR,SKC,0.00,WeatherDisplay:10.37,2013-09-08 02:20:00,
2013-09-08 04:30:00,50.2,43.2,30.19,North,1,0.0,0.0,77,0.00,CLR,SKC,0.00,WeatherDisplay:10.37,2013-09-08 02:30:00,
2013-09-08 04:40:00,49.6,43.1,30.19,North,1,0.0,0.0,78,0.00,CLR,SKC,0.00,WeatherDisplay:10.37,2013-09-08 02:40:00,
2013-09-08 04:50:00,49.1,43.2,30.19,North,1,0.0,0.0,80,0.00,CLR,SKC,0.00,WeatherDisplay:10.37,2013-09-08 02:50:00,
2013-09-08 05:00:00,48.7,42.8,30.19,North,1,0.0,0.0,80,0.00,CLR,SKC,0.00,WeatherDisplay:10.37,2013-09-08 03:00:00,
2013-09-08 05:10:00,48.4,42.8,30.19,North,1,0.0,0.0,81,0.00,CLR,SKC,0.00,WeatherDisplay:10.37,2013-09-08 03:10:00,
2013-09-08 05:20:00,48.9,43.3,30.19,North,1,0.0,0.0,81,0.00,CLR,SKC,0.00,WeatherDisplay:10.37,2013-09-08 03:20:00,
2013-09-08 05:30:00,49.3,43.4,30.19,North,1,0.0,0.0,80,0.00,CLR,SKC,0.00,WeatherDisplay:10.37,2013-09-08 03:30:00,
2013-09-08 05:40:00,48.9,42.7,30.19,North,1,0.0,0.0,79,0.00,CLR,SKC,0.00,WeatherDisplay:10.37,2013-09-08 03:40:00,
2013-09-08 05:50:00,48.6,42.7,30.19,North,1,0.0,0.0,80,0.00,CLR,SKC,0.00,WeatherDisplay:10.37,2013-09-08 03:50:00,
2013-09-08 06:00:00,48.4,42.8,30.20,North,1,0.0,0.0,81,0.00,CLR,SKC,0.00,WeatherDisplay:10.37,2013-09-08 04:00:00,
2013-09-08 06:10:00,48.0,42.5,30.20,North,1,0.0,0.0,81,0.00,CLR,SKC,0.00,WeatherDisplay:10.37,2013-09-08 04:10:00,
2013-09-08 06:20:00,47.5,42.3,30.20,North,1,0.0,0.0,82,0.00,CLR,SKC,0.00,WeatherDisplay:10.37,2013-09-08 04:20:00,
2013-09-08 06:30:00,47.3,42.4,30.21,North,1,0.0,0.0,83,0.00,CLR,SKC,0.00,WeatherDisplay:10.37,2013-09-08 04:30:00,
2013-09-08 06:40:00,47.1,42.5,30.20,North,1,0.0,0.0,84,0.00,CLR,SKC,0.00,WeatherDisplay:10.37,2013-09-08 04:40:00,
2013-09-08 06:50:00,47.5,42.9,30.21,North,1,0.0,0.0,84,0.00,CLR,SKC,0.00,WeatherDisplay:10.37,2013-09-08 04:50:00,
2013-09-08 07:00:00,47.8,43.5,30.21,North,1,0.0,0.0,85,0.00,CLR,SKC,0.00,WeatherDisplay:10.37,2013-09-08 05:00:00,
2013-09-08 07:10:00,49.1,44.8,30.21,North,1,0.0,0.0,85,0.00,CLR,SKC,0.00,WeatherDisplay:10.37,2013-09-08 05:10:00,
2013-09-08 07:20:00,50.7,46.1,30.21,North,1,0.0,0.0,84,0.00,CLR,SKC,0.00,WeatherDisplay:10.37,2013-09-08 05:20:00,
2013-09-08 07:30:00,52.9,47.9,30.22,North,1,0.0,0.0,83,0.00,CLR,SKC,0.00,WeatherDisplay:10.37,2013-09-08 05:30:00,
2013-09-08 07:40:00,55.6,48.5,30.21,North,1,0.0,0.0,77,0.00,CLR,SKC,0.00,WeatherDisplay:10.37,2013-09-08 05:40:00,
2013-09-08 07:50:00,57.0,48.8,30.22,North,1,0.0,0.0,74,0.00,CLR,SKC,0.00,WeatherDisplay:10.37,2013-09-08 05:50:00,
2013-09-08 08:00:00,58.5,48.8,30.22,North,1,0.0,0.0,70,0.00,CLR,SKC,0.00,WeatherDisplay:10.37,2013-09-08 06:00:00,
2013-09-08 08:10:00,60.1,48.7,30.22,North,1,0.0,0.0,66,0.00,CLR,SKC,0.00,WeatherDisplay:10.37,2013-09-08 06:10:00,
2013-09-08 08:20:00,61.3,49.0,30.22,North,1,0.0,0.0,64,0.00,CLR,SKC,0.00,WeatherDisplay:10.37,2013-09-08 06:20:00,
2013-09-08 08:30:00,62.6,49.4,30.22,North,1,0.0,0.0,62,0.00,CLR,SKC,0.00,WeatherDisplay:10.37,2013-09-08 06:30:00,
2013-09-08 08:40:00,63.7,49.5,30.22,North,1,0.0,0.0,60,0.00,CLR,SKC,0.00,WeatherDisplay:10.37,2013-09-08 06:40:00,
2013-09-08 08:50:00,64.5,49.4,30.23,North,1,0.0,0.0,58,0.00,CLR,SKC,0.00,WeatherDisplay:10.37,2013-09-08 06:50:00,
2013-09-08 09:00:00,65.5,49.4,30.24,North,1,0.0,0.0,56,0.00,CLR,SKC,0.00,WeatherDisplay:10.37,2013-09-08 07:00:00,
2013-09-08 09:10:00,66.2,50.0,30.23,North,1,0.0,0.0,56,0.00,CLR,SKC,0.00,WeatherDisplay:10.37,2013-09-08 07:10:00,
2013-09-08 09:20:00,67.1,50.3,30.24,North,1,0.0,0.0,55,0.00,CLR,SKC,0.00,WeatherDisplay:10.37,2013-09-08 07:20:00,
2013-09-08 09:30:00,67.6,49.9,30.24,North,1,0.0,0.0,53,0.00,CLR,SKC,0.00,WeatherDisplay:10.37,2013-09-08 07:30:00,
2013-09-08 09:40:00,67.8,49.5,30.24,North,1,0.0,0.0,52,0.00,CLR,SKC,0.00,WeatherDisplay:10.37,2013-09-08 07:40:00,
2013-09-08 09:50:00,68.4,49.5,30.24,North,1,0.0,0.0,51,0.00,CLR,SKC,0.00,WeatherDisplay:10.37,2013-09-08 07:50:00,
2013-09-08 10:00:00,70.0,50.5,30.24,North,1,0.0,0.0,50,0.00,CLR,SKC,0.00,WeatherDisplay:10.37,2013-09-08 08:00:00,
2013-09-08 10:10:00,70.5,50.4,30.24,North,1,0.0,0.0,49,0.00,CLR,SKC,0.00,WeatherDisplay:10.37,2013-09-08 08:10:00,
2013-09-08 10:20:00,71.4,50.7,30.24,North,1,0.0,0.0,48,0.00,CLR,SKC,0.00,WeatherDisplay:10.37,2013-09-08 08:20:00,
2013-09-08 10:30:00,71.4,50.1,30.24,North,1,0.0,0.0,47,0.00,CLR,SKC,0.00,WeatherDisplay:10.37,2013-09-08 08:30:00,
2013-09-08 10:40:00,71.8,50.5,30.24,North,1,0.0,0.0,47,0.00,CLR,SKC,0.00,WeatherDisplay:10.37,2013-09-08 08:40:00,
2013-09-08 10:50:00,72.9,50.9,30.24,North,1,0.0,0.0,46,0.00,CLR,SKC,0.00,WeatherDisplay:10.37,2013-09-08 08:50:00,
2013-09-08 11:00:00,73.2,50.6,30.23,North,1,0.0,0.0,45,0.00,CLR,SKC,0.00,WeatherDisplay:10.37,2013-09-08 09:00:00,
2013-09-08 11:10:00,73.6,50.9,30.22,North,1,0.0,0.0,45,0.00,CLR,SKC,0.00,WeatherDisplay:10.37,2013-09-08 09:10:00,
2013-09-08 11:20:00,73.9,50.6,30.22,North,1,0.0,0.0,44,0.00,CLR,SKC,0.00,WeatherDisplay:10.37,2013-09-08 09:20:00,
2013-09-08 11:30:00,74.1,50.2,30.22,North,1,0.0,0.0,43,0.00,CLR,SKC,0.00,WeatherDisplay:10.37,2013-09-08 09:30:00,
2013-09-08 11:40:00,75.0,50.4,30.22,North,1,0.0,0.0,42,0.00,CLR,SKC,0.00,WeatherDisplay:10.37,2013-09-08 09:40:00,
2013-09-08 11:50:00,75.0,49.7,30.22,North,1,0.0,0.0,41,0.00,CLR,SKC,0.00,WeatherDisplay:10.37,2013-09-08 09:50:00,
2013-09-08 12:00:00,75.0,50.4,30.22,North,1,0.0,0.0,42,0.00,CLR,SKC,0.00,WeatherDisplay:10.37,2013-09-08 10:00:00,
2013-09-08 12:10:00,75.4,50.7,30.21,North,1,0.0,0.0,42,0.00,CLR,SKC,0.00,WeatherDisplay:10.37,2013-09-08 10:10:00,
2013-09-08 12:20:00,75.9,50.5,30.21,North,1,0.0,0.0,41,0.00,CLR,SKC,0.00,WeatherDisplay:10.37,2013-09-08 10:20:00,
2013-09-08 12:30:00,76.3,50.2,30.21,North,1,0.0,0.0,40,0.00,CLR,SKC,0.00,WeatherDisplay:10.37,2013-09-08 10:30:00,
2013-09-08 12:40:00,76.6,51.2,30.21,North,1,0.0,0.0,41,0.00,CLR,SKC,0.00,WeatherDisplay:10.37,2013-09-08 10:40:00,
2013-09-08 12:50:00,77.5,51.3,30.21,North,1,0.0,0.0,40,0.00,CLR,SKC,0.00,WeatherDisplay:10.37,2013-09-08 10:50:00,
2013-09-08 13:00:00,77.7,50.8,30.21,North,1,0.0,0.0,39,0.00,CLR,SKC,0.00,WeatherDisplay:10.37,2013-09-08 11:00:00,
2013-09-08 13:10:00,77.0,49.4,30.20,North,1,0.0,0.0,38,0.00,CLR,SKC,0.00,WeatherDisplay:10.37,2013-09-08 11:10:00,
2013-09-08 13:20:00,76.5,49.0,30.20,North,1,0.0,0.0,38,0.00,CLR,SKC,0.00,WeatherDisplay:10.37,2013-09-08 11:20:00,
2013-09-08 13:30:00,76.2,49.4,30.19,North,1,0.0,0.0,39,0.00,CLR,SKC,0.00,WeatherDisplay:10.37,2013-09-08 11:30:00,
2013-09-08 13:40:00,76.5,49.7,30.19,North,1,0.0,0.0,39,0.00,CLR,SKC,0.00,WeatherDisplay:10.37,2013-09-08 11:40:00,
2013-09-08 13:50:00,76.6,50.5,30.20,North,1,0.0,0.0,40,0.00,CLR,SKC,0.00,WeatherDisplay:10.37,2013-09-08 11:50:00,
2013-09-08 14:00:00,76.8,50.0,30.19,North,1,0.0,0.0,39,0.00,CLR,SKC,0.00,WeatherDisplay:10.37,2013-09-08 12:00:00,
2013-09-08 14:10:00,77.2,50.3,30.19,North,1,0.0,0.0,39,0.00,CLR,SKC,0.00,WeatherDisplay:10.37,2013-09-08 12:10:00,
2013-09-08 14:20:00,77.7,50.8,30.19,North,1,0.0,0.0,39,0.00,CLR,SKC,0.00,WeatherDisplay:10.37,2013-09-08 12:20:00,
2013-09-08 14:30:00,77.6,49.9,30.19,North,1,0.0,0.0,38,0.00,CLR,SKC,0.00,WeatherDisplay:10.37,2013-09-08 12:30:00,
2013-09-08 14:40:00,77.9,50.9,30.18,North,1,0.0,0.0,39,0.00,CLR,SKC,0.00,WeatherDisplay:10.37,2013-09-08 12:40:00,
2013-09-08 14:50:00,77.9,50.9,30.18,North,1,0.0,0.0,39,0.00,CLR,SKC,0.00,WeatherDisplay:10.37,2013-09-08 12:50:00,
2013-09-08 15:00:00,78.4,50.7,30.17,North,1,0.0,0.0,38,0.00,CLR,SKC,0.00,WeatherDisplay:10.37,2013-09-08 13:00:00,
2013-09-08 15:10:00,79.0,50.5,30.17,North,1,0.0,0.0,37,0.00,CLR,SKC,0.00,WeatherDisplay:10.37,2013-09-08 13:10:00,
2013-09-08 15:20:00,79.3,50.8,30.18,North,1,0.0,0.0,37,0.00,CLR,SKC,0.00,WeatherDisplay:10.37,2013-09-08 13:20:00,
2013-09-08 15:30:00,79.3,50.8,30.17,North,1,0.0,0.0,37,0.00,CLR,SKC,0.00,WeatherDisplay:10.37,2013-09-08 13:30:00,
2013-09-08 15:40:00,79.6,51.0,30.17,North,1,0.0,0.0,37,0.00,CLR,SKC,0.00,WeatherDisplay:10.37,2013-09-08 13:40:00,
2013-09-08 15:50:00,79.3,50.1,30.17,North,1,0.0,0.0,36,0.00,CLR,SKC,0.00,WeatherDisplay:10.37,2013-09-08 13:50:00,
2013-09-08 16:00:00,79.3,50.1,30.17,North,1,0.0,0.0,36,0.00,CLR,SKC,0.00,WeatherDisplay:10.37,2013-09-08 14:00:00,
2013-09-08 16:10:00,79.3,50.8,30.17,North,1,0.0,0.0,37,0.00,CLR,SKC,0.00,WeatherDisplay:10.37,2013-09-08 14:10:00,
2013-09-08 16:20:00,79.7,50.4,30.17,North,1,0.0,0.0,36,0.00,CLR,SKC,0.00,WeatherDisplay:10.37,2013-09-08 14:20:00,
2013-09-08 16:30:00,79.5,51.0,30.17,North,1,0.0,0.0,37,0.00,CLR,SKC,0.00,WeatherDisplay:10.37,2013-09-08 14:30:00,
2013-09-08 16:40:00,79.0,50.5,30.16,North,1,0.0,0.0,37,0.00,CLR,SKC,0.00,WeatherDisplay:10.37,2013-09-08 14:40:00,
2013-09-08 16:50:00,78.8,50.3,30.16,North,1,0.0,0.0,37,0.00,CLR,SKC,0.00,WeatherDisplay:10.37,2013-09-08 14:50:00,
2013-09-08 17:00:00,78.4,50.7,30.16,North,1,0.0,0.0,38,0.00,CLR,SKC,0.00,WeatherDisplay:10.37,2013-09-08 15:00:00,
2013-09-08 17:10:00,78.1,50.4,30.16,North,1,0.0,0.0,38,0.00,CLR,SKC,0.00,WeatherDisplay:10.37,2013-09-08 15:10:00,
2013-09-08 17:20:00,78.3,50.6,30.16,North,1,0.0,0.0,38,0.00,CLR,SKC,0.00,WeatherDisplay:10.37,2013-09-08 15:20:00,
2013-09-08 17:30:00,77.0,50.1,30.16,North,1,0.0,0.0,39,0.00,CLR,SKC,0.00,WeatherDisplay:10.37,2013-09-08 15:30:00,
2013-09-08 17:40:00,76.2,50.8,30.15,North,1,0.0,0.0,41,0.00,CLR,SKC,0.00,WeatherDisplay:10.37,2013-09-08 15:40:00,
2013-09-08 17:50:00,75.7,51.0,30.15,North,1,0.0,0.0,42,0.00,CLR,SKC,0.00,WeatherDisplay:10.37,2013-09-08 15:50:00,
2013-09-08 18:00:00,75.6,50.9,30.15,North,1,0.0,0.0,42,0.00,CLR,SKC,0.00,WeatherDisplay:10.37,2013-09-08 16:00:00,
2013-09-08 18:10:00,75.0,50.4,30.15,North,1,0.0,0.0,42,0.00,CLR,SKC,0.00,WeatherDisplay:10.37,2013-09-08 16:10:00,
2013-09-08 18:20:00,74.5,50.5,30.15,North,1,0.0,0.0,43,0.00,CLR,SKC,0.00,WeatherDisplay:10.37,2013-09-08 16:20:00,
2013-09-08 18:30:00,73.6,50.3,30.14,North,1,0.0,0.0,44,0.00,CLR,SKC,0.00,WeatherDisplay:10.37,2013-09-08 16:30:00,
2013-09-08 18:40:00,72.4,50.4,30.15,North,1,0.0,0.0,46,0.00,CLR,SKC,0.00,WeatherDisplay:10.37,2013-09-08 16:40:00,
2013-09-08 18:50:00,71.2,51.1,30.14,North,1,0.0,0.0,49,0.00,CLR,SKC,0.00,WeatherDisplay:10.37,2013-09-08 16:50:00,
2013-09-08 19:00:00,69.6,52.2,30.14,North,1,0.0,0.0,54,0.00,CLR,SKC,0.00,WeatherDisplay:10.37,2013-09-08 17:00:00,
2013-09-08 19:10:00,67.9,51.6,30.13,North,1,0.0,0.0,56,0.00,CLR,SKC,0.00,WeatherDisplay:10.37,2013-09-08 17:10:00,
2013-09-08 19:20:00,66.7,51.9,30.14,North,1,0.0,0.0,59,0.00,CLR,SKC,0.00,WeatherDisplay:10.37,2013-09-08 17:20:00,
2013-09-08 19:30:00,65.7,51.4,30.14,North,1,0.0,0.0,60,0.00,CLR,SKC,0.00,WeatherDisplay:10.37,2013-09-08 17:30:00,
2013-09-08 19:40:00,64.2,50.9,30.14,North,1,0.0,0.0,62,0.00,CLR,SKC,0.00,WeatherDisplay:10.37,2013-09-08 17:40:00,
2013-09-08 19:50:00,63.1,49.9,30.14,North,1,0.0,0.0,62,0.00,CLR,SKC,0.00,WeatherDisplay:10.37,2013-09-08 17:50:00,
2013-09-08 20:00:00,63.1,49.5,30.14,North,1,0.0,0.0,61,0.00,CLR,SKC,0.00,WeatherDisplay:10.37,2013-09-08 18:00:00,
2013-09-08 20:10:00,62.7,48.6,30.13,North,1,0.0,0.0,60,0.00,CLR,SKC,0.00,WeatherDisplay:10.37,2013-09-08 18:10:00,
2013-09-08 20:20:00,62.2,49.1,30.14,North,1,0.0,0.0,62,0.00,CLR,SKC,0.00,WeatherDisplay:10.37,2013-09-08 18:20:00,
2013-09-08 20:30:00,61.3,48.6,30.14,North,1,0.0,0.0,63,0.00,CLR,SKC,0.00,WeatherDisplay:10.37,2013-09-08 18:30:00,
2013-09-08 20:40:00,60.6,48.8,30.13,North,1,0.0,0.0,65,0.00,CLR,SKC,0.00,WeatherDisplay:10.37,2013-09-08 18:40:00,
2013-09-08 20:50:00,60.4,49.0,30.14,North,1,0.0,0.0,66,0.00,CLR,SKC,0.00,WeatherDisplay:10.37,2013-09-08 18:50:00,
2013-09-08 21:00:00,59.5,48.2,30.13,North,1,0.0,0.0,66,0.00,CLR,SKC,0.00,WeatherDisplay:10.37,2013-09-08 19:00:00,
2013-09-08 21:10:00,59.5,49.0,30.13,North,1,0.0,0.0,68,0.00,CLR,SKC,0.00,WeatherDisplay:10.37,2013-09-08 19:10:00,
2013-09-08 21:20:00,59.5,49.0,30.13,North,1,0.0,0.0,68,0.00,CLR,SKC,0.00,WeatherDisplay:10.37,2013-09-08 19:20:00,
2013-09-08 21:30:00,58.8,48.3,30.14,North,1,0.0,0.0,68,0.00,CLR,SKC,0.00,WeatherDisplay:10.37,2013-09-08 19:30:00,
2013-09-08 21:40:00,58.2,48.1,30.14,North,1,0.0,0.0,69,0.00,CLR,SKC,0.00,WeatherDisplay:10.37,2013-09-08 19:40:00,
2013-09-08 21:50:00,57.9,47.8,30.13,North,1,0.0,0.0,69,0.00,CLR,SKC,0.00,WeatherDisplay:10.37,2013-09-08 19:50:00,
2013-09-08 22:00:00,57.9,47.8,30.13,North,1,0.0,0.0,69,0.00,CLR,SKC,0.00,WeatherDisplay:10.37,2013-09-08 20:00:00,
2013-09-08 22:10:00,57.4,47.7,30.14,North,1,0.0,0.0,70,0.00,CLR,SKC,0.00,WeatherDisplay:10.37,2013-09-08 20:10:00,
2013-09-08 22:20:00,57.0,47.7,30.13,North,1,0.0,0.0,71,0.00,CLR,SKC,0.00,WeatherDisplay:10.37,2013-09-08 20:20:00,
2013-09-08 22:30:00,56.8,47.9,30.13,North,1,0.0,0.0,72,0.00,CLR,SKC,0.00,WeatherDisplay:10.37,2013-09-08 20:30:00,
2013-09-08 22:40:00,56.5,47.9,30.14,North,1,0.0,0.0,73,0.00,CLR,SKC,0.00,WeatherDisplay:10.37,2013-09-08 20:40:00,
2013-09-08 22:50:00,56.5,47.9,30.14,North,1,0.0,0.0,73,0.00,CLR,SKC,0.00,WeatherDisplay:10.37,2013-09-08 20:50:00,
2013-09-08 23:00:00,55.9,47.4,30.14,North,1,0.0,0.0,73,0.00,CLR,SKC,0.00,WeatherDisplay:10.37,2013-09-08 21:00:00,
2013-09-08 23:10:00,55.6,47.4,30.14,North,1,0.0,0.0,74,0.00,CLR,SKC,0.00,WeatherDisplay:10.37,2013-09-08 21:10:00,
2013-09-08 23:20:00,55.4,47.7,30.13,North,1,0.0,0.0,75,0.00,CLR,SKC,0.00,WeatherDisplay:10.37,2013-09-08 21:20:00,
2013-09-08 23:30:00,55.8,47.2,30.13,North,1,0.0,0.0,73,0.00,CLR,SKC,0.00,WeatherDisplay:10.37,2013-09-08 21:30:00,
2013-09-08 23:40:00,55.9,47.0,30.13,North,1,0.0,0.0,72,0.00,CLR,SKC,0.00,WeatherDisplay:10.37,2013-09-08 21:40:00,
2013-09-08 23:50:00,55.9,47.0,30.13,North,1,0.0,0.0,72,0.00,CLR,SKC,0.00,WeatherDisplay:10.37,2013-09-08 21:50:00,